Mount Airy, NC

8:59 PM EDT on October 16, 2019 (GMT -0400)
Mount Airy-Surry County

Weather History for KMWK - September, 2019

Change the Weather History Date:

Saturday, September 21, 2019

  Actual Average (KINT) Record (KINT)
Temperature  
Mean Temperature 72 °F -  
Max Temperature 86 °F 75 °F 89 °F (1965)
Min Temperature 57 °F 57 °F 41 °F (1981)
Cooling Degree Days 6    
Growing Degree Days 22 (Base 50)    
Moisture  
Dew Point 62 °F    
Average Humidity 75    
Maximum Humidity 93    
Minimum Humidity 48    
Precipitation  
Precipitation 0.00 in - - ()
Sea Level Pressure  
Sea Level Pressure 30.29 in    
Wind  
Wind Speed 1 mph ()    
Max Wind Speed 7 mph    
Max Gust Speed -    
Visibility 10.0 miles    
Events      
Averages and records for this station are not official NWS values.
T = Trace of Precipitation, MM = Missing Value Source: Averaged Metar Reports

Daily Weather History Graph

Daily Weather History Graph

Search for Another Location

Airport or City:

Astronomy

Sep. 21, 2019 Rise Set
Actual Time 7:09 AM EDT 7:20 PM EDT
Civil Twilight 6:43 AM EDT 7:46 PM EDT
Nautical Twilight 6:13 AM EDT 8:16 PM EDT
Astronomical Twilight 5:42 AM EDT 8:47 PM EDT
Moon No Moon Rise 2:03 PM EDT (9/21)
Length of Visible Light 13h 03m
Length of Day
12h 11m
Waning Gibbous, 55% of the Moon is Illuminated
Sep 21
Waning Gibbous
Sep 21
Last Quarter
Sep 28
New
Oct 5
First Quarter
Oct 13
Full

Hourly Weather History & Observations

Time (EDT) Temp. Heat Index Dew Point Humidity Pressure Visibility Wind Dir Wind Speed Gust Speed Precip Events Conditions
12:15 AM 62.1 °F - 58.6 °F 89% 30.32 in 10.0 mi Calm Calm - N/A   Clear
12:35 AM 62.1 °F - 58.5 °F 88% 30.32 in 10.0 mi Calm Calm - N/A   Clear
12:55 AM 61.9 °F - 58.5 °F 89% 30.32 in 10.0 mi Calm Calm - N/A   Clear
1:15 AM 62.1 °F - 58.3 °F 87% 30.32 in 10.0 mi Calm Calm - N/A   Clear
1:35 AM 61.3 °F - 57.9 °F 89% 30.32 in 10.0 mi Calm Calm - N/A   Clear
1:55 AM 61.2 °F - 58.1 °F 90% 30.31 in 10.0 mi Calm Calm - N/A   Clear
2:15 AM 61.2 °F - 57.9 °F 89% 30.31 in 10.0 mi Calm Calm - N/A   Clear
2:35 AM 60.3 °F - 57.4 °F 90% 30.31 in 10.0 mi Calm Calm - N/A   Clear
2:55 AM 59.9 °F - 57.4 °F 91% 30.31 in 10.0 mi Calm Calm - N/A   Clear
3:15 AM 59.5 °F - 56.8 °F 91% 30.31 in 10.0 mi Calm Calm - N/A   Clear
3:55 AM 59.9 °F - 57.2 °F 91% 30.30 in 10.0 mi Calm Calm - N/A   Clear
4:15 AM 58.5 °F - 55.9 °F 91% 30.30 in 10.0 mi Calm Calm - N/A   Clear
4:35 AM 58.5 °F - 56.3 °F 93% 30.30 in 10.0 mi Calm Calm - N/A   Clear
4:55 AM 58.6 °F - 56.5 °F 93% 30.31 in 10.0 mi Calm Calm - N/A   Clear
5:15 AM 58.5 °F - 56.3 °F 93% 30.31 in 10.0 mi Calm Calm - N/A   Clear
5:35 AM 58.5 °F - 56.3 °F 93% 30.31 in 10.0 mi Calm Calm - N/A   Clear
5:55 AM 58.5 °F - 56.1 °F 92% 30.31 in 10.0 mi Calm Calm - N/A   Clear
6:15 AM 58.6 °F - 56.5 °F 93% 30.32 in 10.0 mi Calm Calm - N/A   Clear
6:35 AM 58.5 °F - 56.3 °F 93% 30.33 in 10.0 mi Calm Calm - N/A   Clear
6:55 AM 58.5 °F - 56.3 °F 93% 30.33 in 10.0 mi Calm Calm - N/A   Clear
7:15 AM 57.7 °F - 55.4 °F 92% 30.34 in 10.0 mi Calm Calm - N/A   Clear
7:35 AM 58.3 °F - 56.1 °F 93% 30.34 in 10.0 mi Calm Calm - N/A   Clear
7:55 AM 59.0 °F - 56.5 °F 91% 30.34 in 10.0 mi Calm Calm - N/A   Clear
8:15 AM 62.1 °F - 59.0 °F 90% 30.34 in 10.0 mi Calm Calm - N/A   Clear
8:35 AM 64.9 °F - 61.0 °F 87% 30.34 in 10.0 mi Calm Calm - N/A   Clear
8:55 AM 65.5 °F - 61.5 °F 87% 30.35 in 10.0 mi Calm Calm - N/A   Clear
9:15 AM 67.1 °F - 61.7 °F 83% 30.35 in 10.0 mi Calm Calm - N/A   Clear
9:55 AM 70.2 °F - 63.3 °F 79% 30.34 in 10.0 mi Calm Calm - N/A   Clear
10:15 AM 72.0 °F - 63.9 °F 76% 30.34 in 10.0 mi Calm Calm - N/A   Clear
10:35 AM 73.8 °F - 63.9 °F 71% 30.34 in 10.0 mi Calm Calm - N/A   Clear
10:55 AM 75.4 °F - 64.4 °F 69% 30.34 in 10.0 mi Calm Calm - N/A   Clear
11:15 AM 78.1 °F - 64.9 °F 64% 30.34 in 10.0 mi Calm Calm - N/A   Clear
11:35 AM 79.0 °F - 65.1 °F 62% 30.33 in 10.0 mi Calm Calm - N/A   Clear
11:55 AM 80.1 °F 82.1 °F 66.2 °F 62% 30.33 in 10.0 mi WSW 3.5 mph - N/A   Clear
12:15 PM 82.6 °F 84.9 °F 66.4 °F 58% 30.32 in 10.0 mi North 3.5 mph - N/A   Clear
12:35 PM 82.9 °F 85.2 °F 66.2 °F 57% 30.31 in 10.0 mi Calm Calm - N/A   Clear
12:55 PM 83.8 °F 86.3 °F 66.6 °F 56% 30.31 in 10.0 mi Calm Calm - N/A   Clear
1:15 PM 85.1 °F 87.4 °F 66.0 °F 53% 30.30 in 10.0 mi Calm Calm - N/A   Clear
1:35 PM 86.4 °F 88.4 °F 65.5 °F 50% 30.29 in 10.0 mi SE 3.5 mph - N/A   Clear
1:55 PM 85.5 °F 86.8 °F 64.2 °F 49% 30.29 in 10.0 mi SE 3.5 mph - N/A   Scattered Clouds
2:35 PM 83.7 °F 86.5 °F 67.6 °F 58% 30.28 in 10.0 mi ENE 5.8 mph - N/A   Scattered Clouds
2:55 PM 86.2 °F 88.8 °F 66.9 °F 52% 30.27 in 10.0 mi SE 4.6 mph - N/A   Clear
3:15 PM 85.8 °F 87.6 °F 65.5 °F 50% 30.26 in 10.0 mi East 4.6 mph - N/A   Clear
3:55 PM 86.2 °F 87.9 °F 65.1 °F 49% 30.24 in 10.0 mi SSE 6.9 mph - N/A   Clear
4:15 PM 86.4 °F 88.1 °F 65.3 °F 49% 30.24 in 10.0 mi SE 3.5 mph - N/A   Clear
4:35 PM 86.0 °F 87.9 °F 65.1 °F 50% 30.23 in 10.0 mi SSE 5.8 mph - N/A   Clear
4:55 PM 86.7 °F 88.4 °F 64.6 °F 48% 30.23 in 10.0 mi SSW 3.5 mph - N/A   Clear
5:15 PM 86.2 °F 87.6 °F 64.2 °F 48% 30.24 in 10.0 mi SSW 4.6 mph - N/A   Scattered Clouds
5:35 PM 84.9 °F 86.3 °F 64.6 °F 50% 30.24 in 10.0 mi SSW 3.5 mph - N/A   Scattered Clouds
5:55 PM 84.9 °F 86.3 °F 64.6 °F 50% 30.23 in 10.0 mi Calm Calm - N/A   Clear
6:15 PM 84.2 °F 85.8 °F 64.9 °F 52% 30.23 in 10.0 mi Calm Calm - N/A   Clear
6:35 PM 83.5 °F 85.1 °F 64.9 °F 53% 30.23 in 10.0 mi Calm Calm - N/A   Scattered Clouds
6:55 PM 82.6 °F 84.1 °F 64.6 °F 54% 30.23 in 10.0 mi Calm Calm - N/A   Clear
7:15 PM 81.9 °F 83.5 °F 64.6 °F 56% 30.23 in 10.0 mi Calm Calm - N/A   Scattered Clouds
7:35 PM 80.4 °F 82.1 °F 64.4 °F 58% 30.23 in 10.0 mi Calm Calm - N/A   Scattered Clouds
7:55 PM 78.3 °F - 66.4 °F 67% 30.23 in 10.0 mi Calm Calm - N/A   Clear
8:15 PM 75.4 °F - 67.1 °F 75% 30.24 in 10.0 mi Calm Calm - N/A   Scattered Clouds
8:35 PM 73.6 °F - 66.7 °F 79% 30.24 in 10.0 mi Calm Calm - N/A   Clear
8:55 PM 73.0 °F - 66.7 °F 81% 30.24 in 10.0 mi Calm Calm - N/A   Clear
9:15 PM 72.7 °F - 66.4 °F 81% 30.25 in 10.0 mi Calm Calm - N/A   Clear
9:35 PM 71.8 °F - 65.7 °F 81% 30.25 in 10.0 mi Calm Calm - N/A   Clear
9:55 PM 72.9 °F - 65.8 °F 79% 30.26 in 10.0 mi Calm Calm - N/A   Clear
10:15 PM 69.8 °F - 65.1 °F 85% 30.27 in 10.0 mi Calm Calm - N/A   Clear
10:35 PM 69.8 °F - 65.3 °F 86% 30.27 in 10.0 mi Calm Calm - N/A   Clear
10:55 PM 69.1 °F - 64.6 °F 86% 30.28 in 10.0 mi Calm Calm - N/A   Clear
11:15 PM 68.2 °F - 64.0 °F 87% 30.27 in 10.0 mi Calm Calm - N/A   Clear
11:35 PM 68.2 °F - 64.0 °F 87% 30.27 in 10.0 mi Calm Calm - N/A   Clear
11:55 PM 66.9 °F - 63.5 °F 89% 30.28 in 10.0 mi Calm Calm - N/A   Clear